TimeMST,TemperatureF,Dew PointF,Humidity,Sea Level PressureIn,VisibilityMPH,Wind Direction,Wind SpeedMPH,Gust SpeedMPH,PrecipitationIn,Events,Conditions,WindDirDegrees,DateUTC
12:52 AM,-0.0,-7.1,72,30.20,10.0,East,3.5,-,N/A,,Partly Cloudy,80,2013-01-15 07:52:00
1:52 AM,-2.0,-9.0,72,30.20,10.0,Calm,Calm,-,N/A,,Clear,0,2013-01-15 08:52:00
2:52 AM,-2.0,-8.0,76,30.19,10.0,Calm,Calm,-,N/A,,Clear,0,2013-01-15 09:52:00
3:52 AM,3.9,-5.1,66,30.17,10.0,Calm,Calm,-,N/A,,Overcast,0,2013-01-15 10:52:00
4:52 AM,7.0,-0.9,70,30.17,10.0,Calm,Calm,-,N/A,,Overcast,0,2013-01-15 11:52:00
5:52 AM,7.0,-2.9,64,30.17,10.0,Calm,Calm,-,N/A,,Overcast,0,2013-01-15 12:52:00
6:52 AM,12.0,-0.0,59,30.15,10.0,South,3.5,-,N/A,,Overcast,170,2013-01-15 13:52:00
7:52 AM,14.0,3.0,62,30.18,10.0,Calm,Calm,-,N/A,,Overcast,0,2013-01-15 14:52:00
8:17 AM,14.0,1.4,57,29.97,10.0,Calm,Calm,-,N/A,,Overcast,0,2013-01-15 15:17:00
8:52 AM,15.1,3.0,59,30.17,10.0,Calm,Calm,-,N/A,,Overcast,0,2013-01-15 15:52:00
9:52 AM,16.0,6.1,65,30.16,10.0,ESE,5.8,-,N/A,,Overcast,110,2013-01-15 16:52:00
10:09 AM,17.6,6.8,63,29.95,10.0,East,5.8,-,N/A,,Overcast,100,2013-01-15 17:09:00
10:52 AM,19.0,8.1,62,30.15,10.0,Calm,Calm,-,N/A,,Overcast,0,2013-01-15 17:52:00
11:52 AM,21.9,10.9,63,30.11,10.0,SSE,3.5,-,N/A,,Overcast,150,2013-01-15 18:52:00
12:52 PM,24.1,15.1,69,30.09,10.0,Calm,Calm,-,N/A,,Overcast,0,2013-01-15 19:52:00
1:52 PM,28.0,18.0,66,30.08,10.0,South,5.8,-,N/A,,Overcast,180,2013-01-15 20:52:00
2:52 PM,30.0,19.9,66,30.08,10.0,Calm,Calm,-,N/A,,Overcast,0,2013-01-15 21:52:00
3:41 PM,30.2,23.0,75,29.92,1.8,Calm,Calm,-,0.01,Snow,Light Snow,0,2013-01-15 22:41:00
3:50 PM,30.2,23.0,75,29.92,1.2,Calm,Calm,-,0.01,Snow,Light Snow,0,2013-01-15 22:50:00
3:52 PM,30.0,24.1,79,30.08,1.5,Calm,Calm,-,0.01,Snow,Light Snow,0,2013-01-15 22:52:00
3:55 PM,30.2,24.8,80,29.92,2.0,Calm,Calm,-,0.00,Snow,Light Snow,0,2013-01-15 22:55:00
3:58 PM,30.2,24.8,80,29.92,4.0,Calm,Calm,-,0.00,Snow,Light Snow,0,2013-01-15 22:58:00
4:05 PM,30.2,24.8,80,29.92,9.0,Calm,Calm,-,0.00,,Overcast,0,2013-01-15 23:05:00
4:52 PM,28.9,25.0,85,30.07,2.5,SW,3.5,-,0.00,Snow,Light Snow,220,2013-01-15 23:52:00
5:05 PM,28.4,24.8,86,29.90,3.0,South,6.9,-,0.01,Snow,Light Snow,180,2013-01-16 00:05:00
5:52 PM,28.9,26.1,89,30.06,10.0,Calm,Calm,-,0.01,,Overcast,0,2013-01-16 00:52:00
6:52 PM,30.9,27.0,85,30.02,10.0,Calm,Calm,-,0.00,,Overcast,0,2013-01-16 01:52:00
7:52 PM,37.9,27.0,65,29.98,10.0,West,5.8,-,N/A,,Overcast,270,2013-01-16 02:52:00
8:52 PM,41.0,28.0,60,29.96,10.0,NW,20.7,-,N/A,,Overcast,310,2013-01-16 03:52:00
9:52 PM,39.9,28.9,65,29.96,10.0,NW,18.4,27.6,N/A,,Partly Cloudy,320,2013-01-16 04:52:00
10:52 PM,42.1,28.9,60,29.95,10.0,NW,31.1,41.4,N/A,,Mostly Cloudy,320,2013-01-16 05:52:00
11:52 PM,41.0,28.0,60,29.98,10.0,NW,20.7,29.9,N/A,,Mostly Cloudy,320,2013-01-16 06:52:00